Date,TemperatureHighF,TemperatureAvgF,TemperatureLowF,DewpointHighF,DewpointAvgF,DewpointLowF,HumidityHigh,HumidityAvg,HumidityLow,PressureMaxIn,PressureMinIn,WindSpeedMaxMPH,WindSpeedAvgMPH,GustSpeedMaxMPH,PrecipitationSumIn
2013-2-1,19.0,9.9,2.0,15.6,4.3,-2.2,89,78,69,30.47,30.25,22,9,26,0.00
2013-2-2,28.0,19.4,9.8,24.2,16.1,5.2,93,87,79,30.29,30.06,15,6,20,0.11
2013-2-3,23.4,18.2,10.5,20.4,14.2,6.1,92,84,75,30.15,30.04,20,6,24,0.04
2013-2-4,31.2,26.1,20.4,26.3,22.9,17.3,93,88,79,30.12,29.89,12,4,13,0.02
2013-2-5,32.9,26.0,15.3,29.9,23.2,12.9,94,89,86,30.15,29.86,22,6,22,0.00
2013-2-6,39.4,31.6,21.5,31.3,26.7,18.0,90,82,68,30.30,30.15,16,4,16,0.00
2013-2-7,42.9,34.7,30.8,38.7,32.8,28.6,97,93,80,30.18,29.88,20,4,21,0.53
2013-2-8,33.3,29.8,26.6,32.5,27.2,24.3,97,90,84,30.45,29.96,24,8,25,0.00
2013-2-9,35.5,31.1,27.7,31.1,26.9,23.0,91,84,78,30.45,30.15,16,5,16,0.00
2013-2-10,48.4,40.0,32.1,46.8,37.9,28.3,96,92,83,30.15,29.56,36,10,36,0.19
2013-2-11,45.3,34.6,30.2,40.3,28.0,24.3,83,76,73,30.10,29.60,37,18,40,0.00
2013-2-12,30.6,27.8,21.3,25.5,23.2,19.1,93,83,78,30.18,30.00,23,7,23,0.00
2013-2-13,44.7,33.1,21.4,35.6,28.6,19.7,96,84,67,30.00,29.78,18,4,19,0.00
2013-2-14,35.3,34.6,33.9,32.7,32.0,31.3,91,90,89,29.82,29.74,14,5,14,0.00
2013-2-16,23.6,18.7,11.9,14.7,9.2,5.4,75,66,56,30.27,30.17,21,8,23,0.00
2013-2-17,30.9,20.4,8.5,20.3,10.6,4.2,85,67,40,30.30,30.09,12,3,13,0.00
2013-2-18,53.7,39.5,26.3,45.3,33.9,20.0,95,81,65,30.10,29.49,30,11,31,0.24
2013-2-19,29.4,17.5,11.6,26.8,12.7,6.0,90,81,76,30.26,29.65,40,17,40,0.00
2013-2-20,25.6,16.9,8.2,17.6,10.9,3.3,86,77,67,30.43,30.26,19,7,20,0.00
2013-2-21,30.2,25.7,19.8,24.8,21.0,15.3,94,82,78,30.43,30.02,28,6,32,0.00
2013-2-22,33.9,28.9,24.7,33.1,27.1,23.2,97,93,86,30.02,29.88,23,9,25,0.36
2013-2-23,28.4,25.9,19.7,24.5,21.2,17.1,90,82,72,30.04,29.98,19,7,21,0.00
2013-2-24,35.7,26.0,16.8,26.0,20.9,14.4,92,81,64,30.22,30.04,9,2,10,0.00
2013-2-25,42.3,31.8,21.3,32.1,26.7,19.3,92,82,65,30.24,29.98,14,4,15,0.00
2013-2-26,35.2,33.6,32.8,32.3,30.4,26.7,96,88,72,29.98,29.52,30,8,30,0.67
2013-2-27,33.5,32.9,32.2,32.6,31.7,30.9,97,95,92,29.74,29.53,16,6,18,0.00
2013-2-28,36.1,33.2,29.7,33.2,30.5,25.2,96,90,83,30.10,29.74,18,7,21,0.05